map of UIO home
Great Circle Mapper logo
UIO - Airport
Location
City:  Quito, Pichincha, Ecuador
Near (Alt.):Tababela
Name:Mitad del Mundo International Airport
ICAO / IATA:SEQM / UIO

Details
Type:Airport (Aerodrome, Airfield)
Use:Public/Civil, International (customs port of entry)
Latitude:006'48"S (-0.113332)
Longitude:7821'31"W (-78.358610)
Elevation:7874 ft (2400 m)
Runways:1
Longest:13451 ft (4100 m), paved

Weather
METAR:SEQM 201700Z 28004KT 9999 SCT030 BKN300 20/10 Q1026 NOSIG RMK A3031
TAF:SEQM 192310Z 2000/2024 02003KT 4000 BCFG FEW005 SCT030 BKN090
TEMPO 2001/2004 2000 RA BR
FM200600 00000KT 3000 BCFG SCT003 BKN020
TEMPO 2008/2010 DZ
FM201300 VRB03KT 9999 SCT030 SCT300
FM201800 35012KT 9999 BKN033 SCT100
TEMPO 2020/2023 6000 TSRA FEW023CB BKN030 TX26/2019 TN10/2010

Related Locations
Nearby:
Farthest:PKU: 12437 mi / 20015 km
Pekanbaru [Sultan Syarif Kasim II (Simpang Tiga)], Riau, ID

Find:

   beyond  
but within

Other Information
Maps:
NOTAMs:
Links:
Sources:

  
flag of Ecuador   

Sectional Chart

Flight Planning
at skyvector.com

Satellite Image

Google Maps Satellite View

 

Copyright © 2004-2014 Karl L. Swartz. All rights reserved.
The Great Circle Mapper name and logo are trademarks of the Great Circle Mapper.
All other trademarks mentioned herein belong to their respective owners.
Please see credits for attibutions and further copyright information.

  Follow gcmap on Facebook Follow gcmap on Twitter

hCard Microformat

Geo Microformat